Weather in Fominki

Russia / Vladimir Oblast     55°57′51″N   42°22′04″E
temp.,
°C
wind,
m/s
gust,
m/s
humid.,
%
clouds,
%
prec.,
mm/h
press.,
hPa
HPBL,
m
1 march, mon
mon100:00−11n129698 0.0 102123
03:00−11nw229688 0.1 102224
06:00−9wnw1296100 0.1 102331
09:00−7wsw2493100 0.1 1023159
12:00−3wsw368465 0.0 1022587
15:00−2wsw588083 0.1 1020765
18:00−2wsw51192100 0.1 1017571
21:00−1wsw51393100 0.1 1014628
2 march, tue
tue200:000w51396100 0.1 1010692
03:00+1w51392100 0.1 1009672
06:000w61297100 0.4 1005776
09:00+1wnw61197100 0.9 1005756
12:00+2nw6107992 0.3 10041148
15:00+1wnw597984 0.4 10041088
18:00−1wnw41090100 0.1 1004551
21:00−2wnw31093100 0.4 1005464
3 march, wed
wed300:00−3nw4109497 0.3 1005537
03:00−5nw5118791 0.4 1007522
06:00−7nw5119094 0.1 1008632
09:00−7nw5118697 0.1 1010599
12:00−4nw51074100 0.0 1011875
15:00−2nw597056 0.0 10111134
18:00−4w4129297 0.1 1009668
21:00−3w5129196 0.1 1010658
4 march, thu
thu400:00−4w4119390 0.0 1008523
03:00−4wsw4119395 0.1 1007458
06:00−3sw51293100 0.1 1003643
09:00−1wsw71494100 1.0 10001000
12:000wsw71393100 1.5 9971020
15:000wsw61192100 1.9 996918
18:00−1wsw41197100 0.9 994673
21:00−1nnw51094100 3.8 995765
5 march, fri
fri500:00−5nw4108899 0.5 997567
03:00−8nw4109050 0.5 1002409
06:00−9wnw39930 0.0 1006309
09:00−8wnw368818 0.0 1008314
12:00−5wnw347726 0.0 1010651
15:00−4wnw357354 0.0 1011940
18:00−8wnw238955 0.0 101236
21:00−10w129228 0.0 101421